Location: Friaudour
(46.0460°N, 1.2873°E)
Time: 08:01:51
(UTC+00:00)

Meteor 1-28 Rocket - Pass Details

Date: 14 July 2020
Orbit: 505 x 522 km, 97.3° (Epoch: 14 August)

Event Time Altitude Azimuth Distance (km) Brightness Sun altitude
Exits shadow 02:31:18 - 155° (SSE) 2,061 6.0 -14.2°
Reaches altitude 10° 02:32:07 10° 153° (SSE) 1,719 5.6 -14.1°
Maximum altitude 02:35:45 57° 74° (ENE) 603 3.8 -13.8°
Drops below altitude 10° 02:39:26 10° 355° (N) 1,742 6.6 -13.4°
Sets 02:41:34 0° 352° (N) 2,636 7.5 -13.2°
